Regional Weather Roundup
Issued by NWS

Home | Current Version | Previous Version | Graphics & Text | Print | Product List | Glossary On
Versions: 1 2 3 4 5 6 7 8 9 10 11 12 13 14 15 16 17 18 19 20 21 22 23 24 25 26 27 28 29 30 31 32 33 34 35 36 37 38 39 40 41 42 43 44 45 46 47 48 49 50
000
ASUS43 KIND 010509
RWRIN

WEATHER ROUNDUP FOR INDIANA
NATIONAL WEATHER SERVICE INDIANAPOLIS IN
1200 AM EST SUN MAR 01 2015

NOTE: "FAIR" INDICATES FEW OR NO CLOUDS BELOW 12,000 FEET WITH NO
SIGNIFICANT WEATHER AND/OR OBSTRUCTIONS TO VISIBILITY.

* - STATION DOES NOT REPORT WEATHER SUCH AS PRECIPITATION OR FOG.

+ - STATION NOT QUALITY CONTROLLED BY THE NATIONAL WEATHER SERVICE.
    USE DATA WITH CAUTION...ESPECIALLY DEWPOINT AND RELATIVE
    HUMIDITY OBSERVATIONS.

INZ001>003-010>013-019-020-010600-
NORTHWEST INDIANA

CITY           SKY/WX    TMP DP  RH WIND       PRES   REMARKS
GARY /AIRPORT/ LGT SNOW  20  13  73 CALM      30.49F
KNOX *+          N/A     19   9  63 SE6       30.47F WCI  11
LA PORTE +     LGT SNOW  19  16  86 SE3       30.48F
MICHIGAN CITY+ LGT SNOW  19  10  68 S3        30.49F
MONTICELLO +   LGT SNOW  19  17  93 E6        30.46F WCI  10
RENSSELAER +   LGT SNOW  21  21 100 E8        30.47F WCI  12
VALPARAISO     LGT SNOW  17  14  88 SE5       30.47F FOG     WCI  10

$$

LMZ046-743>745-010600-
SOUTHERN LAKE MICHIGAN

STATION/POSITION TIME  TEMP WIND        PRES
                       AIR  DIR/SP/G
                 (UTC) (F)  (DEG/KT/KT) (MB)
MICHIGAN CITY    0500   18  120/  6/  8   N/A

$$

INZ004-005-014>016-021>024-010600-
NORTH CENTRAL INDIANA

CITY           SKY/WX    TMP DP  RH WIND       PRES   REMARKS
GOSHEN         LGT SNOW  16  11  80 SE6       30.47F WCI   7
LOGANSPORT +   LGT SNOW  19  18  93 E7        30.48F WCI  10
PERU/GRISSOM   LGT SNOW  18  16  93 E7        30.44F FOG     WCI   8
ROCHESTER +    LGT SNOW  21  18  86 SE6       30.48F WCI  14
SOUTH BEND     LGT SNOW  18  13  80 SE8       30.49F WCI   8
WARSAW +       LGT SNOW  18  14  86 SE3       30.48F

$$

INZ006>009-017-018-025>027-010600-
NORTHEAST INDIANA

CITY           SKY/WX    TMP DP  RH WIND       PRES   REMARKS
ANGOLA *+      CLOUDY    12  10  92 SE5       30.47F WCI   4
FORT WAYNE     LGT SNOW  17  14  88 E7        30.50F FOG     WCI   8
HUNTINGTON +   LGT SNOW  17  12  80 E3        30.48F

$$

INZ028-029-035-036-043>045-051>053-010600-
WEST CENTRAL INDIANA

CITY           SKY/WX    TMP DP  RH WIND       PRES   REMARKS
CRAWFORDSVL +  LGT SNOW  19  15  82 E5        30.44F WCI  13
GREENCASTLE +  LGT SNOW  21  18  86 SE6       30.45F VSB 3/4 WCI  14
LAFAYETTE      LGT SNOW  20  18  92 SE6       30.46F VSB 3/4 WCI  12
TERRE HAUTE    LGT SNOW  24  22  91 SE3       30.46F VSB 3/4

$$

INZ030>032-037>040-046>048-054>057-064-065-010600-
CENTRAL INDIANA

CITY           SKY/WX    TMP DP  RH WIND       PRES   REMARKS
CP ATTERBURY + LGT SNOW  25  23  93 E5        30.47F WCI  19
FRANKFORT +    LGT SNOW  20  20 100 E7        30.46F WCI  11
INDIANAPOLIS   LGT SNOW  22  19  89 SE7       30.44F VSB 3/4 WCI  13
-EAGLE CREEK   LGT SNOW  21  19  92 SE7       30.44F VSB 3/4 WCI  12
KOKOMO *+      CLOUDY    18  16  93 E8        30.46F WCI   7
MARION +       LGT SNOW  18  15  87 E5        30.47F WCI  11
MT COMFORT *+  CLOUDY    21  21 100 SE5       30.46F WCI  15
SHELBYVILLE    LGT SNOW  24  20  84 SE7       30.46F VSB 3/4 WCI  16
ZIONSVILLE +   LGT SNOW  21  17  85 SE5       30.45F WCI  15

$$

INZ033-034-041-042-049-050-058-059-010600-
EAST CENTRAL INDIANA

CITY           SKY/WX    TMP DP  RH WIND       PRES   REMARKS
MUNCIE         LGT SNOW  20  17  88 E5        30.46F VSB 1   WCI  13

$$

INZ060-061-067>069-081>083-085>088-010600-
SOUTHWEST INDIANA

CITY           SKY/WX    TMP DP  RH WIND       PRES   REMARKS
EVANSVILLE     CLOUDY    32  20  61 NE8       30.48F WCI  25
HUNTINGBURG *+ CLOUDY    30  18  59 NE12      30.47F WCI  21
WASHINGTON +   LGT SNOW  27  24  88 S9        30.46F WCI  18

$$

INZ062-063-066-070>080-084-089>092-010600-
SOUTH CENTRAL AND SOUTHEAST INDIANA

CITY           SKY/WX    TMP DP  RH WIND       PRES   REMARKS
BLOOMINGTON    LGT SNOW  24  22  91 SE7       30.44F VSB 3/4 WCI  16
NORTH VERNON + LGT SNOW  25  23  93 E3        30.48F
SEYMOUR +      LGT SNOW  27  23  86 SE5       30.49F WCI  21

$$



USA.gov is the U.S. government's official web portal to all federal, state and local government web resources and services.